TimeAKDT,TemperatureF,Dew PointF,Humidity,Sea Level PressureIn,VisibilityMPH,Wind Direction,Wind SpeedMPH,Gust SpeedMPH,PrecipitationIn,Events,Conditions,WindDirDegrees,DateUTC
12:56 AM,19.0,12.9,77,29.21,10.0,Calm,Calm,-,N/A,,Clear,0,2014-03-15 08:56:00
1:56 AM,17.1,12.0,81,29.24,10.0,Calm,Calm,-,N/A,,Scattered Clouds,0,2014-03-15 09:56:00
2:56 AM,21.0,15.1,78,29.28,10.0,West,6.9,-,N/A,,Partly Cloudy,280,2014-03-15 10:56:00
3:56 AM,21.0,10.9,65,29.36,10.0,WSW,10.4,-,N/A,,Overcast,250,2014-03-15 11:56:00
4:56 AM,21.0,10.9,65,29.43,10.0,WSW,6.9,-,N/A,,Overcast,250,2014-03-15 12:56:00
5:56 AM,18.0,8.1,65,29.49,10.0,SSW,8.1,-,N/A,,Overcast,210,2014-03-15 13:56:00
6:56 AM,16.0,6.1,65,29.56,10.0,SW,6.9,-,N/A,,Overcast,220,2014-03-15 14:56:00
7:56 AM,14.0,5.0,67,29.60,10.0,SSW,5.8,-,N/A,,Overcast,210,2014-03-15 15:56:00
8:56 AM,14.0,5.0,67,29.64,10.0,South,6.9,-,N/A,,Overcast,190,2014-03-15 16:56:00
9:56 AM,12.9,5.0,71,29.67,10.0,SW,10.4,-,N/A,,Overcast,230,2014-03-15 17:56:00
10:56 AM,12.0,3.9,70,29.70,10.0,SSW,9.2,-,N/A,,Overcast,210,2014-03-15 18:56:00
11:56 AM,12.0,3.0,67,29.73,10.0,SW,5.8,-,N/A,,Mostly Cloudy,230,2014-03-15 19:56:00
12:56 PM,14.0,3.9,64,29.74,10.0,Calm,Calm,-,N/A,,Overcast,0,2014-03-15 20:56:00
1:56 PM,15.1,3.9,61,29.75,10.0,SW,3.5,-,N/A,,Partly Cloudy,230,2014-03-15 21:56:00
2:56 PM,16.0,5.0,62,29.74,10.0,South,3.5,-,N/A,,Partly Cloudy,170,2014-03-15 22:56:00
3:56 PM,15.1,3.9,61,29.73,10.0,WSW,3.5,-,N/A,,Overcast,240,2014-03-15 23:56:00
4:56 PM,15.1,5.0,64,29.72,10.0,West,3.5,-,N/A,,Mostly Cloudy,270,2014-03-16 00:56:00
5:56 PM,12.9,3.9,67,29.71,10.0,Calm,Calm,-,N/A,,Clear,0,2014-03-16 01:56:00
6:56 PM,9.0,1.0,70,29.70,10.0,WSW,3.5,-,N/A,,Clear,250,2014-03-16 02:56:00
7:56 PM,6.1,-0.9,73,29.69,10.0,SW,3.5,-,N/A,,Clear,230,2014-03-16 03:56:00
8:56 PM,1.9,-0.9,88,29.69,10.0,Calm,Calm,-,N/A,,Clear,0,2014-03-16 04:56:00
9:56 PM,1.0,-2.9,83,29.67,10.0,West,8.1,-,N/A,,Clear,260,2014-03-16 05:56:00
10:56 PM,3.0,-2.0,80,29.67,10.0,SW,4.6,-,N/A,,Clear,220,2014-03-16 06:56:00
11:56 PM,-2.0,-7.1,79,29.68,10.0,Calm,Calm,-,N/A,,Clear,0,2014-03-16 07:56:00